Hourly Data Report for June 22, 2021

WESTERN HEAD
NOVA SCOTIA
Current Station Operator: ECCC - MSC

43°59'24.070" N
64°39'51.008" W
10.10 m
8206240
71411
WWE

Download Data

Hourly Data (June 2021)
Hourly Data Report for June 22, 2021
TIME
LST
Temp Definition
°C
Dew Point Definition
°C
Rel Hum Definition
%
Precip. Amount Definition
mm

Wind Dir Definition
10's deg

Wind Spd Definition
km/h
Visibility Definition
km
Stn Press Definition
kPa
Hmdx Definition


Wind Chill Definition


Weather Definition


00:00 12.6 LegendMM LegendMM 0.0 19 10   100.72     LegendNANA
01:00 11.4 LegendMM LegendMM 0.0 19 8   100.68     LegendNANA
02:00 14.4 LegendMM LegendMM 0.3 23 16   100.64     LegendNANA
03:00 14.1 LegendMM LegendMM 0.0 21 12   100.63     LegendNANA
04:00 12.1 LegendMM LegendMM 0.0 16 14   100.56     LegendNANA
05:00 12.3 LegendMM LegendMM 0.3 16 11   100.56     LegendNANA
06:00 14.5 LegendMM LegendMM 0.0 22 7   100.54     LegendNANA
07:00 15.7 LegendMM LegendMM 0.2 23 11   100.52     LegendNANA
08:00 15.6 LegendMM LegendMM 0.3 22 12   100.52     LegendNANA
09:00 14.6 LegendMM LegendMM 0.0 22 17   100.52     LegendNANA
10:00 17.2 LegendMM LegendMM 0.0 23 15   100.50     LegendNANA
11:00 18.6 LegendMM LegendMM 0.2 23 10   100.48     LegendNANA
12:00 17.3 LegendMM LegendMM 0.0 21 8   100.51     LegendNANA
13:00 17.0 LegendMM LegendMM 0.6 16 11   100.46     LegendNANA
14:00 15.1 LegendMM LegendMM 0.2 15 10   100.48     LegendNANA
15:00 15.7 LegendMM LegendMM 0.0 12 12   100.43     LegendNANA
16:00 14.8 LegendMM LegendMM 0.0 16 7   100.45     LegendNANA
17:00 14.7 LegendMM LegendMM 0.0 19 9   100.43     LegendNANA
18:00 13.7 LegendMM LegendMM 0.0 22 14   100.44     LegendNANA
19:00 12.2 12.2 100 0.0 19 27   100.53     LegendNANA
20:00 11.0 11.0 100 0.0 20 16   100.54     LegendNANA
21:00 11.1 11.1 100 0.0 20 17   100.59     LegendNANA
22:00 11.2 11.2 100 0.0 20 17   100.55     LegendNANA
23:00 10.5 10.5 100 0.0 20 11   100.54     LegendNANA

Notes on Data Quality.

Legend

  • E = Estimated
  • M = Missing
  • NA = Not Available*
  • [empty] = Indicates an unobserved value
Date modified: